WX4GPS Weather Reports


time (UTC)temp
C
wind
direction
speed
KPH
gust
KPH
rain 1hr
cm
rain 24hr
cm
rain mn
cm
humidity
%
barometer
mb
20260505125003 17 176 8.0 19.3 0.00 0.00 0.00
20260505124003 17 180 4.8 11.3 0.00 0.00 0.00
20260505123002 17 182 4.8 11.3 0.00 0.00 0.00
20260505122002 16 239 0.0 0.0 0.00 0.00 0.00
20260505121004 16 239 0.0 0.0 0.00 0.00 0.00
20260505120025 16 239 0.0 0.0 0.00 0.00 0.00
20260505115003 15 239 0.0 0.0 0.00 0.00 0.00
20260505114002 15 239 0.0 0.0 0.00 0.00 0.00
20260505113025 16 255 1.6 9.7 0.00 0.00 0.00
20260505112003 16 264 1.6 12.9 0.00 0.00 0.00
20260505111002 16 316 4.8 12.9 0.00 0.00 0.00
20260505102004 15 225 1.6 11.3 0.00 0.00 0.00
20260505101003 15 228 1.6 11.3 0.00 0.00 0.00
20260505100002 15 202 4.8 11.3 0.00 0.00 0.00
20260505095003 15 201 3.2 9.7 0.00 0.00 0.00
20260505094003 15 224 1.6 12.9 0.00 0.00 0.00
20260505093003 15 200 1.6 11.3 0.00 0.00 0.00
20260505092003 16 163 3.2 16.1 0.00 0.00 0.00
20260505091002 16 197 0.0 11.3 0.00 0.00 0.00
20260505090003 16 205 6.4 16.1 0.00 0.00 0.00
20260505085024 16 155 0.0 16.1 0.00 0.00 0.00
20260505083003 16 180 3.2 14.5 0.00 0.00 0.00
20260505082003 17 202 6.4 19.3 0.00 0.00 0.00
20260505081002 17 188 6.4 20.9 0.00 0.00 0.00
20260505080003 17 197 4.8 16.1 0.00 0.00 0.00
20260505075002 17 193 4.8 17.7 0.00 0.00 0.00
20260505074024 17 214 8.0 17.7 0.00 0.00 0.00
20260505073003 17 167 3.2 16.1 0.00 0.00 0.00
20260505071003 17 190 6.4 17.7 0.00 0.00 0.00
20260505070002 17 165 8.0 17.7 0.00 0.00 0.00
20260505065003 17 172 6.4 19.3 0.00 0.00 0.00
20260505064002 17 176 6.4 17.7 0.00 0.00 0.00
20260505063003 17 180 8.0 19.3 0.00 0.00 0.00
20260505062023 17 174 11.3 19.3 0.00 0.00 0.00
20260505061004 17 200 6.4 19.3 0.00 0.00 0.00
20260505060004 17 166 8.0 19.3 0.00 0.00 0.00
20260505055045 17 174 8.0 19.3 0.00 0.00 0.00
20260505054002 17 183 6.4 16.1 0.00 0.00 0.00
20260505053004 17 170 6.4 16.1 0.00 0.00 0.00
20260505052003 17 185 4.8 16.1 0.00 0.00 0.00
20260505051004 17 170 6.4 12.9 0.00 0.00 0.00
20260505041002 17 208 3.2 12.9 0.00 0.00 0.00
20260505040005 17 173 1.6 11.3 0.00 0.00 0.00
20260505035002 17 172 3.2 12.9 0.00 0.00 0.00
20260505034003 17 198 3.2 9.7 0.00 0.00 0.00
20260505033003 17 177 6.4 12.9 0.00 0.00 0.00
20260505032003 17 166 4.8 11.3 0.00 0.00 0.00
20260505031024 17 149 1.6 12.9 0.00 0.00 0.00
20260505030004 17 180 1.6 11.3 0.00 0.00 0.00
20260505025004 17 192 1.6 9.7 0.00 0.00 0.00
20260505024003 18 173 1.6 16.1 0.00 0.00 0.00
20260505023003 18 179 4.8 12.9 0.00 0.00 0.00
20260505022003 18 161 8.0 16.1 0.00 0.00 0.00
20260505021003 18 162 6.4 14.5 0.00 0.00 0.00
20260505020003 18 147 6.4 11.3 0.00 0.00 0.00
20260505015003 18 156 3.2 9.7 0.00 0.00 0.00
20260505014003 18 166 6.4 12.9 0.00 0.00 0.00
20260505013003 18 154 1.6 11.3 0.00 0.00 0.00
20260505012045 18 151 0.0 11.3 0.00 0.00 0.00
20260505011003 18 186 0.0 9.7 0.00 0.00 0.00
20260505010002 18 173 3.2 11.3 0.00 0.00 0.00
20260505005003 19 170 0.0 6.4 0.00 0.00 0.00
20260505004003 20 198 0.0 9.7 0.00 0.00 0.00
20260505003002 20 203 0.0 12.9 0.00 0.00 0.00
20260505002003 21 180 3.2 12.9 0.00 0.00 0.00
20260505001003 21 144 0.0 12.9 0.00 0.00 0.00
20260505000045 22 183 3.2 12.9 0.00 0.00 0.00
20260504235003 22 174 3.2 16.1 0.00 0.00 0.00
20260504234003 23 203 3.2 20.9 0.00 0.00 0.00
20260504233002 23 211 6.4 19.3 0.00 0.00 0.00
20260504232024 23 188 1.6 16.1 0.00 0.00 0.00
20260504231003 24 198 6.4 16.1 0.00 0.00 0.00
20260504230003 25 215 6.4 20.9 0.00 0.00 0.00
20260504225002 26 212 8.0 29.0 0.00 0.00 0.00
20260504224002 26 238 1.6 16.1 0.00 0.00 0.00
20260504223003 26 216 12.9 24.1 0.00 0.00 0.00
20260504222003 27 223 9.7 30.6 0.00 0.00 0.00
20260504221002 28 232 11.3 25.7 0.00 0.00 0.00
20260504220004 28 227 6.4 22.5 0.00 0.00 0.00
20260504215003 28 169 3.2 22.5 0.00 0.00 0.00
20260504214003 27 235 1.6 20.9 0.00 0.00 0.00
20260504213003 30 246 9.7 22.5 0.00 0.00 0.00
20260504212002 29 178 6.4 24.1 0.00 0.00 0.00
20260504211003 27 253 6.4 16.1 0.00 0.00 0.00
20260504210004 30 226 9.7 20.9 0.00 0.00 0.00
20260504205003 30 272 9.7 22.5 0.00 0.00 0.00
20260504204002 28 178 8.0 22.5 0.00 0.00 0.00
20260504203003 29 237 6.4 19.3 0.00 0.00 0.00
20260504202002 29 222 9.7 30.6 0.00 0.00 0.00
20260504201003 28 242 6.4 25.7 0.00 0.00 0.00
20260504200003 28 200 8.0 22.5 0.00 0.00 0.00
20260504195003 28 266 6.4 19.3 0.00 0.00 0.00
20260504194003 27 228 9.7 30.6 0.00 0.00 0.00
20260504193002 27 232 8.0 22.5 0.00 0.00 0.00
20260504192004 27 239 9.7 24.1 0.00 0.00 0.00
20260504191003 27 263 6.4 27.4 0.00 0.00 0.00
20260504190025 27 177 6.4 27.4 0.00 0.00 0.00
20260504185002 26 186 11.3 25.7 0.00 0.00 0.00
20260504184003 24 239 8.0 29.0 0.00 0.00 0.00
20260504183003 23 241 11.3 25.7 0.00 0.00 0.00
20260504182024 23 204 11.3 22.5 0.00 0.00 0.00
20260504181002 23 232 8.0 29.0 0.00 0.00 0.00
20260504180003 23 216 12.9 24.1 0.00 0.00 0.00
20260504175004 22 164 9.7 25.7 0.00 0.00 0.00
20260504174002 22 212 9.7 24.1 0.00 0.00 0.00
20260504173003 22 232 6.4 22.5 0.00 0.00 0.00
20260504172003 22 208 12.9 24.1 0.00 0.00 0.00
20260504171003 21 185 6.4 25.7 0.00 0.00 0.00
20260504151004 15 200 6.4 27.4 0.00 0.00 0.00
20260504141002 12 173 11.3 24.1 0.00 0.00 0.00